Location: Ertinghausen
(51.6624°N, 9.7874°E)
Time: 16:43:41
(UTC+00:00)

NOSS 3-4 (A) - Pass Details

Date: 23 May 2024
Orbit: 801 x 1410 km, 63.4° (Epoch: 04 June)

Event Time Altitude Azimuth Distance (km) Brightness Sun altitude
Rises 00:33:27 0° 312° (NW) 3,770 6.9 -15.8°
Reaches altitude 10° 00:36:06 10° 305° (NW) 2,903 6.2 -15.7°
Maximum altitude 00:42:23 37° 241° (WSW) 1,737 4.4 -15.4°
Enters shadow 00:47:12 19° 186° (S) 2,604 5.1 -15.1°
